SCP
0 0 0 0 0 0 0 0 0 0 0 0 0 0 0 0 0 0 0 0 0 0 0 0 0 0 0 0 0 0 0 0
0 0 0 0 0 0 -0 -0 0 0 0 0 0 0 0 0 0 0 0 0 0 0 0 0 0 0 0 0 0 0 0 0
0 0 0 0 0 0 -0 -0 0 0 0 0 0 0 0 0 0 0 0 0 0 0 0 0 0 0 0 0 0 0 0 0
0 0 0 0 0 0 0 -0 0 0 0 0 0 0 0 0 0 0 0 0 0 0 0 0 0 0 0 0 0 0 0 0
0 0 0 0 -0 -0 0 0 0 0 0 0 0 0 0 0 0 0 0 0 0 0 0 0 0 0 0 0 0 0 0 0
0 0 0 -0 -0 0 0 0 0 0 0 0 0 0 0 0 0 0 0 0 0 0 0 0 0 0 0 0 0 0 0 0
0 0 0 0 0 0 0 0 0 0 0 0 0 0 0 0 0 0 0 0 0 0 0 0 0 0 0 0 0 0 0 0
0 0 0 0 0 0 0 0 0 0 0 0 0 0 0 0 0 0 0 0 0 0 0 0 0 0 0 0 0 0 0 0
0 0 0 0 0 0 0 0 0 0 0 0 0 0 0 0 0 0 0 0 0 0 0 0 0 0 0 0 0 0 0 0
0 0 0 0 0 0 0 0 0 0 0 0 0 0 0 0 0 0 0 0 0 0 0 0 0 0 0 0 0 0 0 0
0 0 0 0 0 0 0 0 0 0 0 0 0 0 0 0 0 0 0 0 0 0 0 0 0 0 0 0 0 0 0 0
0 0 0 0 0 0 0 0 0 0 0 0 0 0 0 0 0 0 0 0 0 0 0 0 0 0 0 0 0 0 0 0
0 0 0 0 0 0 0 0 0 0 0 0 0 0 0 0 0 0 0 0 0 0 0 0 0 0 0 0 0 0 0 0
0 0 0 0 0 0 0 0 0 0 0 0 0 0 0 0 0 0 0 0 0 0 0 0 0 0 0 0 0 0 0 0
0 0 0 0 0 0 0 0 0 0 0 0 0 0 0 0 0 0 0 0 0 0 0 0 0 0 0 0 0 0 0 0
0 0 0 0 0 0 0 0 0 0 0 0 0 0 0 0 0 0 0 0 0 0 0 0 0 0 0 0 0 0 0 0
0 0 0 0 0 0 0 0 0 0 0 0 0 0 0 0 0 0 0 0 0 0 0 0 0 0 0 0 0 0 0 0
0 0 0 0 0 0 0 0 0 0 0 0 0 0 0 0 0 0 0 0 0 0 0 0 0 0 0 0 0 0 0 0
0 0 0 0 0 0 0 0 0 0 0 0 0 0 0 0 0 0 0 0 0 0 0 0 0 0 0 0 0 0 0 0
0 0 0 0 0 0 0 0 0 0 0 0 0 0 0 0 0 0 0 0 0 0 0 0 0 0 0 0 0 0 0 0
Wind_Speed_500mb
16 15 13 12 11 9 9 15 26 38 47 53 61 67 74 72 73 69 70 72 67 71 74 71 84 94 90 84 80 82 77 82
16 17 15 13 11 9 5 11 20 27 36 45 53 60 67 70 70 68 68 66 69 68 71 76 80 81 90 84 82 80 83 85
16 13 12 11 9 10 13 20 23 27 32 38 45 55 63 68 67 67 64 61 64 70 74 76 84 89 90 85 82 84 87 87
12 12 14 15 23 26 23 28 31 35 37 39 45 53 60 64 62 63 62 59 62 66 70 73 79 83 87 84 83 86 88 85
21 23 25 32 29 37 46 39 43 42 44 50 51 56 57 58 59 58 60 62 62 65 66 67 74 82 82 83 82 82 82 77
52 56 52 49 58 59 57 48 50 56 53 53 59 59 57 58 58 54 56 60 58 62 64 65 70 77 83 86 74 78 76 72
57 57 62 52 52 53 46 54 54 55 57 55 58 58 57 57 58 57 54 60 62 63 64 65 69 78 84 81 79 80 78 72
58 56 64 65 46 48 49 52 56 59 58 55 55 57 55 54 56 58 55 57 61 62 63 63 67 76 81 86 85 81 76 71
63 59 61 56 52 51 55 56 54 50 47 47 52 53 53 53 54 57 53 54 58 61 60 60 61 68 76 83 74 76 75 70
59 54 51 52 52 47 43 42 44 44 43 41 42 45 49 50 50 52 52 56 58 57 57 57 57 64 70 73 77 76 74 72
37 32 30 34 37 38 37 36 35 35 35 34 33 34 38 37 41 43 46 51 53 53 51 52 52 57 68 70 77 76 72 74
36 33 32 29 28 28 28 28 29 31 30 29 28 27 27 28 33 33 37 40 43 44 43 45 45 50 58 64 75 78 76 78
34 31 27 23 22 21 20 20 20 20 20 19 21 21 20 21 22 24 27 29 31 32 32 33 32 38 51 61 73 72 71 76
29 26 22 19 17 13 12 10 10 11 11 11 13 14 15 14 15 18 20 23 25 28 27 28 28 35 48 56 60 61 66 69
21 19 18 17 17 14 12 12 12 12 11 11 11 11 12 14 15 14 12 11 15 17 21 22 24 31 44 55 53 53 59 64
23 21 20 17 17 14 11 11 13 14 15 16 16 16 16 15 13 13 11 7 4 6 10 12 14 17 32 46 53 58 58 60
36 41 38 29 21 15 11 14 15 17 19 19 18 16 14 11 10 10 9 11 12 11 10 9 9 13 18 30 42 47 50 60
50 42 37 31 28 22 17 22 20 18 19 18 17 15 11 9 6 6 8 8 9 10 11 11 13 19 21 24 30 39 48 61
40 38 37 34 29 23 23 25 26 20 17 15 13 10 7 5 6 5 5 6 8 7 8 11 13 18 20 22 28 37 45 52
36 36 37 32 26 27 26 26 25 24 19 13 11 8 8 7 8 9 9 10 16 15 16 17 20 24 26 30 36 42 46 55
Wind_Direction_500mb
229 224 209 202 196 205 234 253 250 250 251 248 244 240 240 242 244 244 243 243 230 232 233 234 238 231 231 232 235 233 229 226
201 187 173 169 170 166 209 256 254 253 253 250 247 243 242 241 244 246 245 240 232 230 233 237 232 235 235 229 233 228 225 223
196 181 168 172 194 236 273 280 277 271 265 260 253 246 242 243 247 249 246 242 236 240 239 242 237 236 229 228 230 225 223 223
174 190 220 237 269 260 261 268 275 273 269 267 260 253 247 245 247 251 247 243 241 241 243 248 244 236 232 229 226 226 227 225
238 245 257 272 270 282 261 269 266 266 271 270 266 263 257 252 250 254 249 245 241 245 248 249 240 236 235 230 230 229 225 221
278 282 281 279 286 277 262 267 271 266 266 268 262 261 260 256 254 258 253 247 248 248 249 246 242 239 233 234 228 226 222 219
282 285 288 286 282 266 248 263 267 268 269 267 264 262 262 259 256 253 256 246 246 249 252 251 248 240 235 232 224 225 223 223
279 277 289 291 278 267 269 269 273 274 273 269 265 263 263 260 255 253 258 248 248 250 254 256 251 248 239 225 224 225 220 222
279 275 281 276 274 274 275 275 274 273 271 268 264 261 260 256 250 250 252 252 252 249 250 256 255 250 241 233 223 223 229 229
274 274 272 272 273 273 272 269 269 271 271 267 262 259 257 254 251 250 248 250 254 256 254 252 253 252 244 232 222 229 227 226
275 270 265 266 268 271 270 270 270 269 267 263 259 253 253 251 248 248 247 247 250 255 257 257 254 248 246 233 227 225 225 224
278 272 265 262 261 263 265 264 266 267 265 264 258 250 243 242 245 247 247 246 250 255 257 260 260 253 249 240 221 220 221 225
282 275 268 260 255 252 257 263 267 267 267 262 253 250 244 240 240 242 242 243 249 254 255 260 260 254 245 235 216 220 226 232
276 269 260 244 228 221 230 237 245 241 235 232 232 222 214 207 213 222 224 231 237 242 247 251 251 240 226 219 224 218 230 234
268 257 249 232 222 219 228 236 231 223 204 192 189 193 194 189 188 199 211 236 249 257 258 259 254 239 220 213 216 229 233 238
275 253 247 242 229 214 211 220 215 191 169 157 154 155 161 161 157 154 156 163 229 271 274 269 261 250 232 225 222 229 238 246
264 264 249 239 225 206 186 168 160 158 146 138 135 135 138 145 144 152 178 205 216 222 229 224 228 234 231 236 236 238 244 249
257 251 240 227 214 197 191 172 153 150 140 138 133 131 136 138 152 174 196 209 224 228 227 233 238 239 237 230 231 238 246 250
245 231 226 218 203 180 177 165 153 147 142 133 121 118 128 151 187 198 202 217 243 244 250 259 254 255 241 234 237 241 242 246
231 220 210 196 176 182 178 168 157 152 141 140 144 152 164 187 214 224 232 241 256 256 256 264 266 262 261 257 243 245 246 246
Wind_Speed_850mb
16 15 13 12 11 9 9 15 26 38 47 53 61 67 74 72 73 69 70 72 67 71 74 71 84 94 90 84 80 82 77 82
16 17 15 13 11 9 5 11 20 27 36 45 53 60 67 70 70 68 68 66 69 68 71 76 80 81 90 84 82 80 83 85
16 13 12 11 9 10 13 20 23 27 32 38 45 55 63 68 67 67 64 61 64 70 74 76 84 89 90 85 82 84 87 87
12 12 14 15 23 26 23 28 31 35 37 39 45 53 60 64 62 63 62 59 62 66 70 73 79 83 87 84 83 86 88 85
21 23 25 32 29 37 46 39 43 42 44 50 51 56 57 58 59 58 60 62 62 65 66 67 74 82 82 83 82 82 82 77
52 56 52 49 58 59 57 48 50 56 53 53 59 59 57 58 58 54 56 60 58 62 64 65 70 77 83 86 74 78 76 72
57 57 62 52 52 53 46 54 54 55 57 55 58 58 57 57 58 57 54 60 62 63 64 65 69 78 84 81 79 80 78 72
58 56 64 65 46 48 49 52 56 59 58 55 55 57 55 54 56 58 55 57 61 62 63 63 67 76 81 86 85 81 76 71
63 59 61 56 52 51 55 56 54 50 47 47 52 53 53 53 54 57 53 54 58 61 60 60 61 68 76 83 74 76 75 70
59 54 51 52 52 47 43 42 44 44 43 41 42 45 49 50 50 52 52 56 58 57 57 57 57 64 70 73 77 76 74 72
37 32 30 34 37 38 37 36 35 35 35 34 33 34 38 37 41 43 46 51 53 53 51 52 52 57 68 70 77 76 72 74
36 33 32 29 28 28 28 28 29 31 30 29 28 27 27 28 33 33 37 40 43 44 43 45 45 50 58 64 75 78 76 78
34 31 27 23 22 21 20 20 20 20 20 19 21 21 20 21 22 24 27 29 31 32 32 33 32 38 51 61 73 72 71 76
29 26 22 19 17 13 12 10 10 11 11 11 13 14 15 14 15 18 20 23 25 28 27 28 28 35 48 56 60 61 66 69
21 19 18 17 17 14 12 12 12 12 11 11 11 11 12 14 15 14 12 11 15 17 21 22 24 31 44 55 53 53 59 64
23 21 20 17 17 14 11 11 13 14 15 16 16 16 16 15 13 13 11 7 4 6 10 12 14 17 32 46 53 58 58 60
36 41 38 29 21 15 11 14 15 17 19 19 18 16 14 11 10 10 9 11 12 11 10 9 9 13 18 30 42 47 50 60
50 42 37 31 28 22 17 22 20 18 19 18 17 15 11 9 6 6 8 8 9 10 11 11 13 19 21 24 30 39 48 61
40 38 37 34 29 23 23 25 26 20 17 15 13 10 7 5 6 5 5 6 8 7 8 11 13 18 20 22 28 37 45 52
36 36 37 32 26 27 26 26 25 24 19 13 11 8 8 7 8 9 9 10 16 15 16 17 20 24 26 30 36 42 46 55
Wind_Direction_850mb
229 224 209 202 196 205 234 253 250 250 251 248 244 240 240 242 244 244 243 243 230 232 233 234 238 231 231 232 235 233 229 226
201 187 173 169 170 166 209 256 254 253 253 250 247 243 242 241 244 246 245 240 232 230 233 237 232 235 235 229 233 228 225 223
196 181 168 172 194 236 273 280 277 271 265 260 253 246 242 243 247 249 246 242 236 240 239 242 237 236 229 228 230 225 223 223
174 190 220 237 269 260 261 268 275 273 269 267 260 253 247 245 247 251 247 243 241 241 243 248 244 236 232 229 226 226 227 225
238 245 257 272 270 282 261 269 266 266 271 270 266 263 257 252 250 254 249 245 241 245 248 249 240 236 235 230 230 229 225 221
278 282 281 279 286 277 262 267 271 266 266 268 262 261 260 256 254 258 253 247 248 248 249 246 242 239 233 234 228 226 222 219
282 285 288 286 282 266 248 263 267 268 269 267 264 262 262 259 256 253 256 246 246 249 252 251 248 240 235 232 224 225 223 223
279 277 289 291 278 267 269 269 273 274 273 269 265 263 263 260 255 253 258 248 248 250 254 256 251 248 239 225 224 225 220 222
279 275 281 276 274 274 275 275 274 273 271 268 264 261 260 256 250 250 252 252 252 249 250 256 255 250 241 233 223 223 229 229
274 274 272 272 273 273 272 269 269 271 271 267 262 259 257 254 251 250 248 250 254 256 254 252 253 252 244 232 222 229 227 226
275 270 265 266 268 271 270 270 270 269 267 263 259 253 253 251 248 248 247 247 250 255 257 257 254 248 246 233 227 225 225 224
278 272 265 262 261 263 265 264 266 267 265 264 258 250 243 242 245 247 247 246 250 255 257 260 260 253 249 240 221 220 221 225
282 275 268 260 255 252 257 263 267 267 267 262 253 250 244 240 240 242 242 243 249 254 255 260 260 254 245 235 216 220 226 232
276 269 260 244 228 221 230 237 245 241 235 232 232 222 214 207 213 222 224 231 237 242 247 251 251 240 226 219 224 218 230 234
268 257 249 232 222 219 228 236 231 223 204 192 189 193 194 189 188 199 211 236 249 257 258 259 254 239 220 213 216 229 233 238
275 253 247 242 229 214 211 220 215 191 169 157 154 155 161 161 157 154 156 163 229 271 274 269 261 250 232 225 222 229 238 246
264 264 249 239 225 206 186 168 160 158 146 138 135 135 138 145 144 152 178 205 216 222 229 224 228 234 231 236 236 238 244 249
257 251 240 227 214 197 191 172 153 150 140 138 133 131 136 138 152 174 196 209 224 228 227 233 238 239 237 230 231 238 246 250
245 231 226 218 203 180 177 165 153 147 142 133 121 118 128 151 187 198 202 217 243 244 250 259 254 255 241 234 237 241 242 246
231 220 210 196 176 182 178 168 157 152 141 140 144 152 164 187 214 224 232 241 256 256 256 264 266 262 261 257 243 245 246 246